www.pogodaiklimat.ru

Погода и климат >> Архив погоды >> Бельгия >> Бюзеноль


ПОГОДА в Бюзеноле

  • Прогноз погоды в Бюзеноле
  • Монитор погоды в Бюзеноле

АРХИВ ПОГОДЫ в Бюзеноле

Время (UTC), дата Ветер
(напр.,м/с)
 
Видим.   Явления Облачность Т
(С)
Тd
(С)
f
(%)
Тe
(С)
Тes
(С)
Комфортность P
(гПа)
Po
(гПа)
Тmin
(С)
Tmax
(С)
R
(мм)
R24
(мм)
S
(см)
05 10.07 С 1 н/о н/о +7.2 +5.7 90 +6 +6 1021.9 982.5 13
06 10.07 СВ 2
{4}
н/о н/о +11.1 +7.6 79 +10 +10 1021.4 982.6 +6.1 49
07 10.07 ЮВ 2 н/о н/о +14.9 +6.7 58 +15 +15 1021.0 982.7 93
08 10.07 Ю 2 н/о н/о +17.3 +6.4 49 +18 +18 1020.7 982.6 141
09 10.07 ЮВ 2 н/о н/о +19.0 +6.1 43 +20 +20 1020.4 982.5 186
10 10.07 В 3 н/о н/о +19.4 +5.6 40 +20 +20 1020.1 982.4 220
11 10.07 СЗ 2 н/о н/о +20.9 +4.6 34 +22 +22 комфорт 1019.7 982.1 247
12 10.07 В 2 н/о н/о +21.7 +5.7 35 +22 +22 комфорт 1019.2 981.6 261
13 10.07 СВ 3 н/о н/о +22.1 +6.3 36 +23 +23 комфорт 1018.6 981.2 259
14 10.07 С 2 н/о н/о +22.9 +7.0 36 +24 +24 комфорт 1018.1 980.8 241
15 10.07 С 2 н/о н/о +23.1 +7.7 37 +24 +24 комфорт 1017.7 980.4 191
16 10.07 ЮВ 1 н/о н/о +24.0 +8.1 36 +24 +24 комфорт 1017.1 980.0 160
17 10.07 СЗ 2 н/о н/о +23.8 +8.4 37 +24 +24 комфорт 1016.7 979.6 124
18 10.07 З 1
{6}
н/о н/о +22.4 +9.9 45 +24 +24 комфорт 1016.7 979.5 +24.2 60
19 10.07 СЗ 2 н/о н/о +20.3 +10.4 53 +22 +22 комфорт 1017.0 979.4 26
20 10.07 СЗ 1 н/о н/о +17.9 +11.8 67 +19 +19 1017.1 979.2 2
21 10.07 С 2 н/о н/о +17.5 +11.6 68 +18 +18 1017.5 979.6
22 10.07 СВ 2 н/о н/о +15.9 +12.4 80 +16 +16 1017.3 979.2
23 10.07 С 2 н/о н/о +14.6 +12.3 86 +14 +14 1017.1 978.9
00 11.07 С 2
{5}
н/о н/о +14.0 +11.8 87 +13 +13 1017.0 978.6 228
01 11.07 С 2 н/о н/о +12.8 +11.1 89 +12 +12 1016.6 978.2
02 11.07 С 2 н/о н/о +13.2 +11.6 90 +12 +12 1016.1 977.7
03 11.07 С 2 н/о н/о +13.0 +11.4 90 +12 +12 1015.7 977.3
04 11.07 СВ 2 н/о н/о +13.2 +11.5 89 +12 +12 1015.7 977.3
05 11.07 С 2 н/о н/о +13.5 +11.9 90 +13 +13 1015.8 977.4 3
06 11.07 С 1
{3}
н/о н/о +14.3 +12.6 90 +15 +15 1015.6 977.4 +12.8 11
07 11.07 СВ 1 н/о н/о +14.9 +13.2 90 +15 +15 1015.6 977.4 16
08 11.07 С 1 н/о н/о +15.2 +12.9 86 +16 +16 1015.6 977.6 27
09 11.07 ЮЗ 2 н/о н/о +15.2 +13.3 88 +15 +15 1015.9 977.8 31
10 11.07 Ю 3 н/о н/о +15.4 +14.1 92 +15 +15 1015.4 977.4 44
11 11.07 ЮЗ 2 н/о н/о +18.5 +15.0 80 +20 +20 1014.9 977.3 192
12 11.07 З 3
{6}
н/о н/о +20.6 +14.1 66 +24 +24 комфорт 1014.0 976.7 187
13 11.07 З 3 н/о н/о +21.1 +14.7 67 +24 +24 комфорт 1013.7 976.5 188
14 11.07 З 3 н/о н/о +21.1 +14.5 66 +24 +24 комфорт 1013.4 976.2 117
15 11.07 З 4 н/о н/о +23.0 +13.8 56 +26 +26 жарко 1012.8 975.9 168
16 11.07 СЗ 2 н/о н/о +22.6 +13.5 56 +26 +26 жарко 1012.8 975.8 103
17 11.07 З 3 н/о н/о +22.1 +13.4 58 +25 +25 комфорт 1012.8 975.6 65
18 11.07 СЗ 1
{7}
н/о н/о +20.0 +15.2 74 +23 +23 комфорт 1013.0 975.6 +23.0 30
19 11.07 В 1 н/о н/о +18.7 +15.7 83 +21 +21 комфорт 1013.2 975.6 26
20 11.07 СВ 1 н/о н/о +17.2 +15.3 89 +18 +18 1013.5 975.8 4
21 11.07 СВ 2 н/о н/о +15.4 +14.2 93 +15 +15 1014.1 976.1
22 11.07 СВ 1 н/о н/о +15.1 +13.9 93 +16 +16 1014.3 976.2
23 11.07 В 1 н/о н/о +14.5 +13.3 93 +15 +15 1013.8 975.7
00 12.07 СВ 2 н/о н/о +13.4 +12.5 94 +13 +13 1013.9 975.6 122
01 12.07 СВ 2 н/о н/о +13.6 +12.8 95 +13 +13 1013.4 975.2
02 12.07 СВ 1 н/о н/о +13.7 +12.9 95 +14 +14 1012.9 974.7
03 12.07 С 2 н/о н/о +13.0 +12.2 95 +12 +12 1012.7 974.4
04 12.07 С 2 н/о н/о +13.1 +12.3 95 +12 +12 1012.7 974.4
05 12.07 С 1 н/о н/о +13.8 +13.1 96 +14 +14 1012.4 974.3 7
06 12.07 ЮЗ 1
{3}
н/о н/о +14.9 +14.2 96 +15 +15 1012.3 974.3 +12.9 29
07 12.07 СЗ 1 н/о н/о +17.2 +14.7 85 +18 +18 1012.5 974.8 77
08 12.07 СЗ 3 н/о н/о +18.4 +13.7 74 +19 +19 1012.2 974.7 131
09 12.07 З 3 н/о н/о +19.6 +12.8 65 +21 +21 комфорт 1012.1 974.8 157
10 12.07 СЗ 4 н/о н/о +20.8 +12.0 57 +23 +23 комфорт 1012.2 974.9 225
11 12.07 СЗ 4 н/о н/о +21.9 +12.1 54 +24 +24 комфорт 1012.1 974.9 235
12 12.07 С 3 н/о н/о +22.5 +12.1 52 +25 +25 комфорт 1011.9 974.8 194
13 12.07 С 3 н/о н/о +22.7 +12.8 54 +26 +26 жарко 1011.6 974.6 199
14 12.07 СВ 5 н/о н/о +19.1 +13.6 70 +20 +20 1012.4 974.9 153
15 12.07 СВ 3 н/о н/о +20.7 +14.7 68 +24 +24 комфорт 1011.9 974.7 158
16 12.07 С 5 н/о н/о +21.7 +11.7 53 +24 +24 комфорт 1012.4 975.0 90
17 12.07 СВ 4 н/о н/о +16.7 +15.0 90 +16 +16 1013.5 975.8 26
18 12.07 С 2
{14}
н/о н/о +16.5 +14.4 87 +17 +17 1014.2 976.3 +23.5 5 41
19 12.07 н/о н/о +16.8 +14.4 86 1014.7 976.8 31
20 12.07 С 1 н/о н/о +15.1 +13.5 90 +16 +16 1015.7 977.6 4
21 12.07 С 1 н/о н/о +13.6 +12.4 92 +14 +14 1016.5 978.2
22 12.07 С 1 н/о н/о +12.7 +11.8 94 +13 +13 1017.0 978.5
23 12.07 С 2 н/о н/о +12.5 +11.5 94 +11 +11 1017.2 978.6
00 13.07 С 1 н/о н/о +12.2 +11.1 93 +12 +12 1017.2 978.7 176
01 13.07 штиль 0 н/о н/о +10.9 +10.1 95 +10 +10 1017.4 978.7
02 13.07 В 1 н/о н/о +10.1 +9.4 95 +10 +10 1017.9 979.0
03 13.07 С 1 н/о н/о +10.2 +9.5 95 +10 +10 1018.1 979.2
04 13.07 СВ 2 н/о н/о +9.2 +8.6 96 +7 +7 1018.6 979.5
05 13.07 С 1 н/о н/о +10.9 +10.3 96 +10 +10 1018.9 980.1 5
06 13.07 С 2
{3}
н/о н/о +12.4 +11.7 95 +11 +11 1018.9 980.3 +9.2 0.1 13
07 13.07 С 2 н/о н/о +13.6 +12.5 93 +13 +13 1019.1 980.6 33
08 13.07 С 2 н/о н/о +14.3 +12.8 91 +14 +14 1019.5 981.2 46
09 13.07 н/о н/о +15.0 +12.8 87 1019.6 981.4 58
10 13.07 С 3 н/о н/о +16.1 +12.3 78 +16 +16 1019.8 981.6 106
11 13.07 СВ 3 н/о н/о +17.8 +11.9 68 +18 +18 1019.3 981.4 175
12 13.07 С 3 н/о н/о +18.3 +11.9 66 +19 +19 1019.1 981.3 -35.1 110 48
13 13.07 СВ 3 н/о н/о +18.8 +12.1 65 +20 +20 1019.0 981.3 105
14 13.07 С 3 н/о н/о +18.4 +12.4 68 +19 +19 1019.1 981.3 89
15 13.07 С 3 н/о н/о +19.8 +12.3 62 +22 +22 комфорт 1018.6 980.9 143
16 13.07 С 3 н/о н/о +18.7 +12.6 68 +20 +20 1019.1 981.2 97
17 13.07 СВ 2 н/о н/о +15.9 +14.2 90 +16 +16 1019.2 981.1 24
18 13.07 СВ 2
{8}
н/о н/о +16.4 +14.9 91 +16 +16 1019.0 980.9 +20.0 37
19 13.07 СВ 2 н/о н/о +16.1 +14.7 91 +16 +16 1019.2 981.2 11
20 13.07 н/о н/о +15.4 +14.1 92 1019.6 981.4 3
21 13.07 СВ 2 н/о н/о +15.2 +14.0 93 +15 +15 1019.9 981.6
22 13.07 СВ 1 н/о н/о +15.0 +13.5 91 +15 +15 1019.8 981.5
23 13.07 СВ 3 н/о н/о +14.9 +13.2 90 +14 +14 1019.8 981.5
00 14.07 СВ 2 н/о н/о +14.2 +12.8 91 +14 +14 1019.4 981.0 106
01 14.07 СВ 1 н/о н/о +14.2 +12.9 92 +14 +14 1019.5 981.2
02 14.07 СВ 1 н/о н/о +13.9 +12.7 92 +14 +14 1019.4 981.0
03 14.07 СВ 2 н/о н/о +13.5 +12.6 94 +13 +13 1018.9 980.4
04 14.07 В 2 н/о н/о +13.5 +12.0 91 +13 +13 1018.6 980.2
05 14.07 СВ 3 н/о н/о +13.1 +11.1 88 +12 +12 1018.8 980.3 9
06 14.07 В 3
{7}
н/о н/о +13.4 +10.9 85 +12 +12 1018.9 980.4 +13.1 21
07 14.07 В 4 н/о н/о +13.9 +10.5 80 +12 +12 1019.2 980.8 33
08 14.07 В 3 н/о н/о +14.3 +10.6 78 +13 +13 1019.5 981.2 47
09 14.07 В 3 н/о н/о +14.8 +10.1 73 +14 +14 1019.7 981.3 69
10 14.07 СВ 4 н/о н/о +15.4 +9.8 69 +14 +14 1019.6 981.4 116
11 14.07 СВ 4 н/о н/о +15.3 +9.7 69 +14 +14 1019.7 981.4 114
12 14.07 СВ 5 н/о н/о +15.6 +9.6 67 +14 +14 1019.5 981.3 110
13 14.07 СВ 6 н/о н/о +17.0 +9.5 61 +16 +16 1018.7 980.8 203
14 14.07 СВ 5 н/о н/о +17.3 +9.4 60 +17 +17 1018.5 980.5 207
15 14.07 СВ 5 н/о н/о +17.6 +9.7 60 +17 +17 1018.4 980.5 131
16 14.07 СВ 5 н/о н/о +17.5 +9.0 57 +17 +17 1018.5 980.5 105
17 14.07 В 5 н/о н/о +17.2 +9.2 59 +17 +17 1018.6 980.6 92
18 14.07 СВ 4
{10}
н/о н/о +16.7 +8.4 58 +16 +16 1018.6 980.5 +17.7 76
19 14.07 СВ 2 н/о н/о +16.2 +9.6 65 +16 +16 1018.7 980.6 29
20 14.07 СВ 3 н/о н/о +15.5 +9.7 68 +15 +15 1019.2 980.9 4
21 14.07 СВ 2 н/о н/о +14.2 +10.1 76 +14 +14 1019.7 981.3
22 14.07 СВ 2 н/о н/о +13.5 +10.2 80 +13 +13 1019.7 981.2
23 14.07 СВ 2 н/о н/о +12.2 +10.1 87 +11 +11 1019.6 980.9
00 15.07 СВ 2 н/о н/о +11.0 +9.8 92 +10 +10 1019.6 980.8 137
01 15.07 СВ 2 н/о н/о +9.9 +8.9 93 +8 +8 1019.9 980.9
02 15.07 С 2 н/о н/о +9.8 +9.1 95 +8 +8 1019.9 980.9
03 15.07 С 2 н/о н/о +10.5 +9.7 95 +9 +9 1019.6 980.7
04 15.07 СВ 2 н/о н/о +11.3 +10.4 94 +10 +10 1019.5 980.7
05 15.07 В 1 н/о н/о +12.1 +11.1 94 +12 +12 1019.3 980.7 2
06 15.07 СВ 3
{4}
н/о н/о +13.1 +11.2 88 +12 +12 1019.4 980.9 +9.6 10
07 15.07 СВ 3 н/о н/о +13.6 +10.9 84 +12 +12 1019.5 981.0 26
08 15.07 В 2 н/о н/о +15.3 +11.0 76 +15 +15 1019.3 981.2 82
09 15.07 СВ 3 н/о н/о +15.5 +9.8 69 +15 +15 1019.5 981.3 88
10 15.07 В 4 н/о н/о +16.5 +9.4 63 +16 +16 1019.4 981.2 117
11 15.07 В 4 н/о н/о +16.6 +9.7 64 +16 +16 1019.2 981.2 128
12 15.07 СВ 5 н/о н/о +17.4 +9.7 61 +17 +17 1019.0 981.0 197
13 15.07 СВ 2 н/о н/о +18.5 +9.9 57 +19 +19 1018.7 980.9 238
14 15.07 С 4 н/о н/о +19.2 +10.3 56 +20 +20 1018.5 980.8 210
15 15.07 СВ 4 н/о н/о +19.6 +10.4 55 +21 +21 комфорт 1018.5 980.8 196
16 15.07 СВ 5 н/о н/о +19.1 +10.3 57 +20 +20 1018.3 980.6 185
17 15.07 СВ 5 н/о н/о +17.9 +9.8 59 +18 +18 1018.6 980.7 128
18 15.07 СВ 5
{9}
н/о н/о +16.7 +9.5 62 +16 +16 1018.8 980.7 +19.6 80
19 15.07 СВ 4 н/о н/о +15.4 +9.3 67 +14 +14 1018.9 980.7 41
20 15.07 СВ 3 н/о н/о +13.7 +9.1 74 +13 +13 1019.6 981.1 5
21 15.07 СВ 2 н/о н/о +12.3 +9.0 80 +11 +11 1020.2 981.5
22 15.07 СВ 2 н/о н/о +10.6 +8.8 89 +9 +9 1020.3 981.4
23 15.07 СВ 2 н/о н/о +9.6 +8.2 91 +8 +8 1020.7 981.6
00 16.07 СВ 2 н/о н/о +9.0 +7.8 92 +7 +7 1020.8 981.6 174
01 16.07 С 2 н/о н/о +8.4 +7.4 93 +6 +6 1020.8 981.5
02 16.07 СВ 3 н/о н/о +7.4 +6.6 95 +4 +4 1020.9 981.5
03 16.07 СВ 3 н/о н/о +6.8 +6.1 95 +4 +4 1020.8 981.3
04 16.07 С 2 н/о н/о +7.7 +7.0 95 +5 +5 1020.5 981.2
05 16.07 СВ 2 н/о н/о +8.9 +8.1 95 +7 +7 1020.7 981.5 5
06 16.07 СВ 1
{3}
н/о н/о +10.6 +8.9 89 +10 +10 1020.4 981.5 +6.8 28
07 16.07 СВ 2 н/о н/о +13.3 +9.8 79 +13 +13 1019.9 981.4 82
08 16.07 В 2 н/о н/о +15.2 +9.0 66 +15 +15 1019.8 981.5 128
09 16.07 В 2 н/о н/о +15.2 +8.7 65 +15 +15 1019.7 981.4 86
10 16.07 ЮВ 2 н/о н/о +17.5 +9.1 58 +18 +18 1019.1 981.2 234
11 16.07 СЗ 2 н/о н/о +18.1 +9.0 55 +19 +19 1018.6 980.8 275
12 16.07 С 2 н/о н/о +19.1 +8.9 52 +20 +20 1018.1 980.4 267
13 16.07 С 2 н/о н/о +20.4 +9.6 50 +22 +22 комфорт 1017.7 980.2 264
14 16.07 ЮВ 2 н/о н/о +21.3 +9.3 46 +23 +23 комфорт 1017.2 979.8 242
15 16.07 СЗ 1 н/о н/о +21.8 +8.8 43 +23 +23 комфорт 1016.8 979.5 199
16 16.07 З 1 н/о н/о +22.1 +9.1 43 +23 +23 комфорт 1016.3 979.0 154
17 16.07 С 2 н/о н/о +22.2 +9.3 44 +24 +24 комфорт 1016.1 978.9 126
18 16.07 С 1
{5}
н/о н/о +21.5 +11.4 53 +24 +24 комфорт 1016.0 978.6 +22.7 69
19 16.07 СВ 3 н/о н/о +19.7 +11.9 61 +21 +21 комфорт 1016.2 978.6 30
20 16.07 С 3 н/о н/о +17.5 +11.4 67 +18 +18 1016.8 978.9 5
21 16.07 С 3 н/о н/о +14.9 +11.3 79 +14 +14 1017.2 979.0
22 16.07 СВ 3 н/о н/о +14.3 +10.6 78 +13 +13 1017.3 979.0
23 16.07 СВ 2 н/о н/о +12.3 +10.1 86 +11 +11 1017.8 979.2
00 17.07 СВ 2 н/о н/о +10.8 +9.6 92 +9 +9 1017.9 979.1 220
01 17.07 СВ 3 н/о н/о +9.9 +8.8 93 +8 +8 1017.9 979.0
02 17.07 С 2 н/о н/о +9.3 +8.3 93 +7 +7 1017.8 978.8
03 17.07 С 2 н/о н/о +8.7 +7.9 95 +7 +7 1017.4 978.3

 

Местоположение метеостанции Бюзеноль (Бельгия): широта 49.62 долгота 5.58 высота над уровнем моря 322 м.

В архиве по умолчанию представлена погода в Бюзеноле за последнюю неделю. Архивные данные за месяц целиком и за предыдущие месяцы, начиная с января 2011 года, Вы можете получить, выбрав интересующий диапазон дат из раскрывающегося списка и нажав кнопку "Ввод!".


*Определитесь, кто Вы:
робот инопланетянин человек

Внимание! Время в таблицах - всемирное. Для получения местного времени необходимо прибавить поправку, которая равна 1 ч.

Смотрите также архив погоды в соседних городах и на ближайших метеорологических станциях:

Погода в Люксембурге (Люксембург) (45 км)
Погода в Сент-Губерте (Бельгия) (47 км)
Погода в Гумане (Бельгия) (69 км)
Погода в Чарвилле (Франция) (71 км)
Погода в Трире (Германия) (80 км)
Погода в Мец-Нанси аэропорту (Франция) (86 км)
Погода в Берусе (Германия) (88 км)
Погода в Дурбе (Бельгия) (88 км)
Погода во Флорене (Бельгия) (95 км)
Погода в Спа (Бельгия) (99 км)

Пояснения к столбцам:

Ветер - указаны скорость ветра в м/с - средняя за 10 мин, порывы в срок и между сроками (в фигурных скобках) и направление, откуда дует ветер: С - северный, СВ - северо-восточный, В - восточный, ЮВ - юго-восточный, Ю - южный, ЮЗ - юго-западный, З - западный, СЗ - северо-западный.
Видимость - горизонтальная дальность видимости в метрах или километрах. При видимости от 1 до 10 км при отсутствии осадков обычно наблюдается дымка, при ухудшении видимости до 1 км и менее - туман. В сухую погоду видимость может ухудшаться дымом, пылью или мглою.
Явления - указаны атмосферные явления, наблюдавшиеся в срок или в последний час перед сроком; фигурными скобками обозначены явления, наблюдавшиеся между сроками (за 1-3 часа до срока); квадратными скобками обозначены град или гололедные отложения с указанием их диаметра в мм.
Облачность - указаны через наклонную черту общая и нижняя облачность в баллах и высота нижней границы облаков в метрах; квадратными скобками обозначены формы облаков: Ci - перистые, Cs - перисто-слоистые, Cc - перисто-кучевые, Ac - высококучевые, As - высокослоистые, Sc - слоисто-кучевые, Ns - слоисто-дождевые, Cu - кучевые, Cb - кучево-дождевые. Подробнее классификацию облаков см. в Атласе облаков (PDF).
T - Температура воздуха - температура, измеренная на высоте 2 м над землей.
Td - Температура точки росы - температура, при понижении до которой содержащийся в воздухе водяной пар достигнет насыщения.
f - Относительная влажность воздуха - влажноcть воздуха, измеренная на высоте 2 м над землей.
Te - Эффективная температура - температура, которую ощущает одетый по сезону человек в тени. Характеристика душности погоды. При расчете учитывается влияние влажности воздуха и скорости ветра на теплоощущения человека.
Tes - Эффективная температура на солнце - температура, которую ощущает человек, с поправкой на солнечный нагрев. Характеристика знойности погоды. Зависит от высоты солнца над горизонтом, облачности и скорости ветра. Ночью, в пасмурную погоду, а также при ветре 12 м/с и более поправка равна нулю.
P - Атмосферное давление - приведенное к уровню моря атмосферное давление.
Po - Атмосферное давление - измеренное на уровне метеостанции атмосферное давление.
Tmin - Минимальная температура - минимум температуры воздуха на высоте 2 м над землей.
Tmax - Максимальная температура - максимум температуры воздуха на высоте 2 м над землей.
R - Количество осадков - Количество выпавших осадков за период времени, мм. При наведении курсора мыши на число - период времени, за который выпало указанное количество осадков.
R24 - Количество осадков - Количество выпавших осадков за 24 часа, мм.
S - Снежный покров - Высота снежного покрова, см. При наведении курсора мыши на число - состояние снежного покрова и степень покрытия местности в баллах.